Lid_Strength_Index
8 12 13 11 10 9 10 10 11 9 8 9 10 10 8 7 8 8 8 7 6 6 4 3 3 2 2 2 3 2 2 2 1 2 2 3 2 1 1 0 0 0 0 0
10 12 8 7 7 8 9 11 11 9 8 9 10 10 9 8 9 8 8 7 6 6 5 3 3 3 3 2 2 2 2 2 1 1 1 1 3 4 2 2 2 0 0 0
11 9 6 7 9 9 10 11 11 11 9 8 10 12 10 8 7 7 7 6 6 6 6 4 4 3 3 3 3 2 2 2 2 1 1 1 1 1 3 4 5 4 1 0
10 7 8 9 9 9 12 8 8 9 11 14 10 15 11 9 9 8 7 6 6 6 5 4 4 4 3 3 2 2 2 2 1 1 2 2 3 3 2 2 2 1 0 0
10 9 9 9 9 8 10 7 9 9 12 13 12 15 12 10 10 9 8 6 7 6 5 4 4 3 3 3 2 2 2 2 2 1 2 2 3 2 2 2 2 1 1 0
9 7 8 8 7 7 7 9 10 11 13 16 12 13 13 11 9 8 6 7 6 6 5 4 4 3 4 3 3 2 3 2 2 2 2 3 2 2 2 2 2 2 1 2
10 9 7 7 10 9 10 14 18 18 18 16 11 12 12 9 8 7 7 7 7 5 5 5 5 4 4 4 3 2 2 2 2 3 2 2 2 2 2 2 2 2 2 2
13 14 9 7 8 11 11 13 15 20 20 17 11 15 13 7 7 6 6 7 6 6 5 5 4 4 4 4 3 3 2 3 2 2 2 2 1 2 3 2 2 2 2 2
13 13 7 7 7 8 11 13 12 13 15 18 15 12 9 7 7 7 7 7 7 7 6 6 5 5 5 5 4 3 3 2 2 2 2 2 2 2 2 2 2 2 1 1
11 14 9 8 7 8 10 8 15 15 21 22 16 15 14 10 9 7 8 9 8 7 6 6 5 5 4 4 3 3 3 3 2 2 2 2 2 1 1 1 2 2 1 1
10 12 12 9 10 11 11 12 12 13 15 20 20 16 9 11 9 8 7 7 8 7 7 6 5 5 4 4 3 3 3 3 3 2 2 2 2 2 2 2 1 1 1 1
9 11 14 12 9 7 9 12 12 17 19 16 17 16 8 9 8 8 7 6 6 5 6 6 5 5 5 4 4 4 4 3 3 2 2 2 2 1 2 2 2 1 1 1
9 13 17 15 11 10 12 11 12 12 14 17 19 17 7 7 8 7 7 6 6 5 5 5 4 5 5 4 4 4 3 3 3 2 2 2 2 2 2 2 2 2 1 1
7 12 14 18 14 11 13 12 11 13 17 16 16 14 11 9 8 7 6 6 6 6 5 5 4 4 5 4 4 4 4 3 3 3 3 3 3 2 2 2 1 1 1 2
10 15 13 12 11 11 10 10 11 13 13 16 13 13 11 9 8 7 6 6 5 5 5 5 4 4 4 5 4 3 3 3 3 3 3 3 2 2 2 2 2 2 2 1
9 15 13 14 11 11 12 10 10 11 11 12 12 12 8 8 7 8 7 6 6 5 5 4 4 4 4 3 4 3 3 3 3 3 3 3 3 3 2 3 2 2 2 2
12 13 14 16 11 12 15 12 12 12 10 11 14 12 9 10 9 8 8 7 7 6 5 5 4 4 4 3 3 4 4 3 3 3 3 2 3 2 3 2 2 2 3 3
12 12 13 17 14 21 12 9 10 12 10 10 10 9 8 9 8 7 6 7 6 5 5 5 5 5 4 3 4 3 3 3 3 3 2 2 2 2 2 2 2 3 3 3
9 12 15 17 18 13 11 11 11 13 13 9 9 8 8 7 7 7 5 5 5 5 5 5 4 4 3 3 3 3 3 3 3 3 3 2 2 2 3 3 3 3 3 3
9 10 14 16 20 20 14 9 7 8 15 9 8 8 8 8 12 9 5 5 5 5 4 5 4 4 4 3 3 3 4 4 4 3 3 2 3 3 3 3 3 3 3 3
13 13 16 15 17 14 10 8 7 16 15 8 7 8 8 9 8 6 5 6 5 5 5 5 5 5 5 4 3 4 4 4 3 2 2 3 3 3 3 3 3 3 3 3
15 16 16 15 17 19 8 8 13 10 8 7 7 7 7 7 7 7 7 7 7 7 6 6 6 6 5 4 4 4 5 4 3 3 3 4 4 3 4 4 4 4 4 4
15 12 14 13 14 8 7 8 6 7 8 7 7 7 6 7 8 8 8 8 8 8 7 6 7 7 6 6 5 6 5 5 4 5 5 4 5 5 5 5 5 5 4 4
10 8 11 11 9 10 8 8 7 7 8 7 6 7 6 8 7 9 9 9 9 9 8 8 8 8 7 6 6 6 5 5 6 7 7 7 7 6 5 4 4 5 4 4
10 9 11 11 9 9 8 8 8 8 7 6 6 6 7 8 8 9 10 10 10 9 8 8 9 9 8 7 7 7 7 6 7 7 8 7 6 7 7 5 5 4 3 3
9 11 12 13 10 10 9 8 7 7 7 7 8 8 7 8 9 9 10 10 10 10 10 9 9 9 8 8 8 7 7 7 7 9 8 6 6 6 5 6 5 9 7 7